Cloud_Cover
29 45 0 0 1 0 0 0 0 0 3 21 14 1 0 0 0 0 0 0 0 3 5 5 4 4 0 3 10 0 0 0 0 4 83 94 100 100 26 1 9 25 49
9 73 3 0 0 0 0 0 0 0 52 3 36 1 0 0 0 0 0 0 0 2 5 20 33 5 98 56 2 0 0 0 0 0 10 88 66 70 72 99 98 98 82
38 70 23 0 0 0 0 0 0 0 4 97 93 19 0 0 0 1 0 0 0 47 56 23 96 62 100 30 7 8 30 15 8 93 51 98 83 100 100 100 100 100 97
19 68 36 0 0 3 0 0 0 0 42 23 14 41 5 2 4 37 28 4 4 94 64 5 5 15 100 100 96 18 33 5 5 43 62 100 93 100 100 100 95 70 100
3 47 53 0 0 0 0 0 0 62 100 44 50 7 3 5 60 89 96 81 61 5 3 0 50 95 18 100 100 30 5 70 80 16 89 80 100 100 100 100 100 100 100
0 0 4 4 0 0 0 0 9 98 14 97 90 40 84 9 5 5 5 8 80 93 6 5 5 100 100 100 100 93 26 96 95 100 75 100 96 100 100 100 100 100 100
0 0 0 5 15 5 0 4 14 6 86 63 86 100 18 18 43 10 58 100 100 100 67 5 5 96 100 100 100 100 43 100 100 100 100 94 100 100 100 100 100 100 100
5 1 0 0 7 45 16 10 9 37 54 27 43 72 81 100 100 100 100 100 100 100 100 65 5 74 100 100 100 82 91 100 96 78 100 99 100 100 100 100 100 100 100
8 5 2 0 0 42 35 15 32 100 92 0 17 99 100 100 100 100 100 100 100 100 87 100 100 100 100 100 64 89 100 100 100 100 100 100 100 100 100 100 100 100 100
29 10 21 18 14 27 22 44 82 90 100 46 48 100 100 100 100 100 100 100 100 100 100 93 99 100 100 100 99 99 88 100 100 100 100 93 100 100 100 100 100 100 99
40 24 24 27 22 26 68 72 98 100 100 66 46 80 94 100 100 100 96 100 100 100 100 59 94 100 87 22 36 47 34 100 100 100 100 100 100 100 100 100 100 100 100
20 55 100 35 27 26 32 100 100 100 97 100 100 100 81 100 100 100 100 100 100 100 100 100 100 100 98 60 20 79 100 82 99 100 100 100 100 100 100 100 100 100 100
0 8 98 54 22 19 25 100 100 100 39 36 100 100 100 100 100 100 100 100 100 100 100 100 100 98 99 100 87 100 26 100 100 100 100 100 100 100 100 100 100 100 100
4 5 24 71 57 32 71 65 82 80 87 97 100 100 100 100 100 100 100 100 100 100 100 100 86 96 87 97 96 80 77 100 100 100 100 100 100 100 100 100 100 100 100
4 5 13 46 48 61 100 93 38 48 100 100 100 100 100 100 100 100 100 100 100 100 100 100 100 90 100 100 100 100 100 100 93 100 100 100 100 100 100 100 100 100 100
4 5 11 25 31 32 40 79 97 66 99 100 100 100 100 100 100 100 100 100 100 100 100 100 71 100 100 98 99 100 100 95 77 99 100 100 100 98 100 100 100 100 100
32 10 20 40 25 23 20 12 100 100 98 100 100 100 100 100 100 100 100 100 100 100 100 100 100 100 100 54 100 65 100 95 100 97 100 100 100 100 100 100 100 100 100
41 5 20 51 39 29 23 23 27 100 92 100 100 100 100 100 100 100 100 100 100 100 100 100 54 100 100 100 98 98 97 100 100 100 100 100 100 100 100 100 100 100 100
65 5 41 43 38 31 24 34 33 33 86 96 100 100 100 100 100 100 100 100 100 100 100 100 99 100 100 100 100 98 99 97 84 100 100 100 92 100 100 100 100 100 100
49 5 23 57 51 41 91 81 64 50 44 100 95 100 100 100 100 100 100 100 100 100 100 100 100 100 100 100 100 100 100 99 83 100 99 100 100 100 100 100 100 100 100
6 27 66 100 100 100 100 100 100 100 73 75 100 70 100 100 100 100 100 100 100 100 100 100 92 100 100 100 100 100 89 100 100 99 100 100 100 100 100 100 100 100 100
47 66 100 100 100 100 100 100 98 100 64 98 53 68 82 100 100 100 100 100 100 100 100 100 100 100 100 100 100 100 97 100 100 100 100 100 100 100 100 100 100 100 100
78 100 100 100 100 100 99 80 92 92 94 93 70 100 59 92 100 100 100 100 100 100 100 100 100 100 100 100 100 100 100 100 100 100 100 100 100 100 100 100 100 100 99
100 97 89 100 100 100 44 39 78 61 100 92 68 100 100 100 98 100 100 100 100 100 100 100 100 100 100 100 100 100 100 100 100 100 100 100 100 100 100 100 100 100 100
100 90 91 100 100 100 49 10 25 44 69 35 88 100 100 100 100 100 100 100 100 100 100 100 100 100 100 100 100 100 100 100 100 100 100 100 100 100 100 100 100 100 100
100 97 100 100 100 100 39 9 1 29 99 80 88 100 100 100 100 100 100 100 100 100 100 100 100 100 100 100 100 100 100 100 100 100 100 100 100 100 100 100 100 100 100